^^
Station Historical Data
Daily Summary for September 27, 2021 Units:  English    Metric   Both
Daily Weekly Monthly Yearly
  High: Low: Average:
Temperature: 68.5 °F 61.6 °F 63.9 °F
Dew Point: 60.4 °F 54.8 °F 57.3 °F
Humidity: 86% 72% 79%
Wind Speed: 4mph 1mph 2.2mph
Wind Gust: 9mph - -
Wind- - SE
Pressure: 29.80 in 29.69 in -
Precipitation: 0.00 in    
 
 
Tabular Data for September 27, 2021
Time Temperature Dew Point Pressure Wind Wind Speed Wind Gust Humidity Rainfall Rate (Hourly) solar
00:00 61.7 °F 57.5 °F 29.74 in NNW 1 mph 2 mph 86% 0.00 in 0 W/m2
00:05 61.8 °F 57.6 °F 29.74 in NNW 1 mph 2 mph 86% 0.00 in 0 W/m2
00:10 62.3 °F 57.4 °F 29.74 in NNE 2 mph 2 mph 84% 0.00 in 0 W/m2
00:15 63 °F 57.4 °F 29.74 in NNE 2 mph 3 mph 82% 0.00 in 0 W/m2
00:20 63.5 °F 57.2 °F 29.74 in North 2 mph 2 mph 80% 0.00 in 0 W/m2
00:25 63.5 °F 57.2 °F 29.74 in NE 2 mph 2 mph 80% 0.00 in 0 W/m2
00:30 63.5 °F 57.6 °F 29.74 in NE 2 mph 3 mph 81% 0.00 in 0 W/m2
00:35 63.3 °F 57.4 °F 29.74 in NE 2 mph 3 mph 81% 0.00 in 0 W/m2
00:40 63.2 °F 57.3 °F 29.74 in NE 2 mph 3 mph 81% 0.00 in 0 W/m2
00:45 63.1 °F 57.2 °F 29.74 in NE 2 mph 3 mph 81% 0.00 in 0 W/m2
00:50 63.1 °F 57.5 °F 29.74 in NE 2 mph 2 mph 82% 0.00 in 0 W/m2
00:55 62.9 °F 57.3 °F 29.74 in NE 2 mph 2 mph 82% 0.00 in 0 W/m2
01:00 62.8 °F 57.2 °F 29.74 in NNE 2 mph 2 mph 82% 0.00 in 0 W/m2
01:05 62.7 °F 57.1 °F 29.74 in NNE 2 mph 2 mph 82% 0.00 in 0 W/m2
01:10 62.6 °F 57 °F 29.74 in NE 2 mph 2 mph 82% 0.00 in 0 W/m2
01:15 62.8 °F 56.9 °F 29.74 in NNE 2 mph 2 mph 81% 0.00 in 0 W/m2
01:20 63.1 °F 56.8 °F 29.74 in NNE 2 mph 2 mph 80% 0.00 in 0 W/m2
01:25 63.5 °F 56.9 °F 29.74 in NNE 2 mph 2 mph 79% 0.00 in 0 W/m2
01:30 63.7 °F 56.7 °F 29.74 in West 2 mph 3 mph 78% 0.00 in 0 W/m2
01:35 63.9 °F 56.9 °F 29.73 in NNW 2 mph 3 mph 78% 0.00 in 0 W/m2
01:40 64 °F 56.6 °F 29.73 in ESE 2 mph 2 mph 77% 0.00 in 0 W/m2
01:45 64.3 °F 56.6 °F 29.73 in NNE 2 mph 3 mph 76% 0.00 in 0 W/m2
01:50 64.4 °F 56.3 °F 29.73 in West 2 mph 2 mph 75% 0.00 in 0 W/m2
01:55 64.5 °F 56.4 °F 29.73 in East 2 mph 2 mph 75% 0.00 in 0 W/m2
02:00 64.6 °F 56.5 °F 29.73 in ENE 2 mph 2 mph 75% 0.00 in 0 W/m2
02:05 64.7 °F 56.2 °F 29.73 in ESE 2 mph 2 mph 74% 0.00 in 0 W/m2
02:10 64.8 °F 56.3 °F 29.73 in ENE 2 mph 2 mph 74% 0.00 in 0 W/m2
02:15 64.9 °F 56 °F 29.72 in ESE 2 mph 2 mph 73% 0.00 in 0 W/m2
02:20 64.9 °F 56 °F 29.72 in NE 2 mph 3 mph 73% 0.00 in 0 W/m2
02:25 64.9 °F 56 °F 29.72 in SSE 2 mph 3 mph 73% 0.00 in 0 W/m2
02:30 64.9 °F 56 °F 29.72 in SE 2 mph 4 mph 73% 0.00 in 0 W/m2
02:35 64.9 °F 56.4 °F 29.72 in NNE 2 mph 4 mph 74% 0.00 in 0 W/m2
02:40 64.8 °F 55.9 °F 29.72 in SE 2 mph 2 mph 73% 0.00 in 0 W/m2
02:45 64.7 °F 56.2 °F 29.72 in SW 2 mph 2 mph 74% 0.00 in 0 W/m2
02:50 64.7 °F 56.2 °F 29.71 in West 2 mph 2 mph 74% 0.00 in 0 W/m2
02:55 64.6 °F 56.1 °F 29.71 in NNE 2 mph 2 mph 74% 0.00 in 0 W/m2
03:00 64.4 °F 55.9 °F 29.71 in NE 2 mph 2 mph 74% 0.00 in 0 W/m2
03:05 64.3 °F 56.2 °F 29.71 in ENE 2 mph 2 mph 75% 0.00 in 0 W/m2
03:10 64.2 °F 56.1 °F 29.71 in North 2 mph 2 mph 75% 0.00 in 0 W/m2
03:15 64 °F 55.9 °F 29.71 in ENE 2 mph 2 mph 75% 0.00 in 0 W/m2
03:20 63.8 °F 56.1 °F 29.70 in NE 2 mph 2 mph 76% 0.00 in 0 W/m2
03:25 63.8 °F 56.1 °F 29.70 in East 2 mph 2 mph 76% 0.00 in 0 W/m2
03:30 63.9 °F 55.8 °F 29.70 in East 2 mph 2 mph 75% 0.00 in 0 W/m2
03:35 63.9 °F 56.2 °F 29.70 in NE 2 mph 2 mph 76% 0.00 in 0 W/m2
03:40 63.6 °F 55.9 °F 29.70 in NE 2 mph 3 mph 76% 0.00 in 0 W/m2
03:45 63.6 °F 55.9 °F 29.70 in NE 2 mph 3 mph 76% 0.00 in 0 W/m2
03:50 63.5 °F 55.8 °F 29.70 in West 2 mph 2 mph 76% 0.00 in 0 W/m2
03:55 63.3 °F 56 °F 29.70 in SE 2 mph 2 mph 77% 0.00 in 0 W/m2
04:00 63.3 °F 56 °F 29.70 in West 2 mph 2 mph 77% 0.00 in 0 W/m2
04:05 63.2 °F 55.9 °F 29.69 in ESE 2 mph 3 mph 77% 0.00 in 0 W/m2
04:10 63.1 °F 55.8 °F 29.69 in NE 2 mph 2 mph 77% 0.00 in 0 W/m2
04:15 63.1 °F 55.8 °F 29.69 in ENE 2 mph 3 mph 77% 0.00 in 0 W/m2
04:20 63.2 °F 55.5 °F 29.69 in NE 2 mph 2 mph 76% 0.00 in 0 W/m2
04:25 63.4 °F 55.3 °F 29.69 in ENE 2 mph 3 mph 75% 0.00 in 0 W/m2
04:30 63.6 °F 55.2 °F 29.69 in West 2 mph 2 mph 74% 0.00 in 0 W/m2
04:35 63.9 °F 55.4 °F 29.69 in East 3 mph 3 mph 74% 0.00 in 0 W/m2
04:40 64 °F 55.2 °F 29.69 in SE 3 mph 3 mph 73% 0.00 in 0 W/m2
04:45 64 °F 55.2 °F 29.69 in East 3 mph 3 mph 73% 0.00 in 0 W/m2
04:50 64 °F 55.5 °F 29.69 in East 3 mph 3 mph 74% 0.00 in 0 W/m2
04:55 63.9 °F 55.1 °F 29.69 in East 3 mph 3 mph 73% 0.00 in 0 W/m2
05:00 63.8 °F 55.4 °F 29.69 in East 2 mph 3 mph 74% 0.00 in 0 W/m2
05:05 63.8 °F 55.4 °F 29.69 in SE 2 mph 3 mph 74% 0.00 in 0 W/m2
05:10 63.6 °F 55.2 °F 29.69 in ENE 2 mph 2 mph 74% 0.00 in 0 W/m2
05:15 63.7 °F 55.3 °F 29.69 in ENE 2 mph 2 mph 74% 0.00 in 0 W/m2
05:20 63.7 °F 55.3 °F 29.69 in East 2 mph 2 mph 74% 0.00 in 0 W/m2
05:25 63.6 °F 55.2 °F 29.69 in SW 2 mph 3 mph 74% 0.00 in 0 W/m2
05:30 63.5 °F 55.1 °F 29.69 in ESE 2 mph 2 mph 74% 0.00 in 0 W/m2
05:35 63.4 °F 55 °F 29.69 in NE 2 mph 2 mph 74% 0.00 in 0 W/m2
05:40 63.5 °F 55.1 °F 29.69 in North 2 mph 2 mph 74% 0.00 in 0 W/m2
05:45 63.4 °F 55 °F 29.69 in ENE 2 mph 2 mph 74% 0.00 in 0 W/m2
05:50 63.3 °F 55.2 °F 29.69 in ENE 2 mph 2 mph 75% 0.00 in 0 W/m2
05:55 63.1 °F 55.4 °F 29.70 in SE 2 mph 2 mph 76% 0.00 in 0 W/m2
06:00 63 °F 55.3 °F 29.70 in SW 2 mph 2 mph 76% 0.00 in 0 W/m2
06:05 62.8 °F 55.5 °F 29.70 in East 2 mph 2 mph 77% 0.00 in 0 W/m2
06:10 62.7 °F 55.4 °F 29.70 in ENE 2 mph 2 mph 77% 0.00 in 0 W/m2
06:15 62.5 °F 55.2 °F 29.70 in SE 2 mph 2 mph 77% 0.00 in 0 W/m2
06:20 62.5 °F 55.5 °F 29.69 in ESE 1 mph 2 mph 78% 0.00 in 0 W/m2
06:25 62.3 °F 55.4 °F 29.70 in SE 2 mph 2 mph 78% 0.00 in 0 W/m2
06:30 62.2 °F 55.3 °F 29.69 in ENE 2 mph 2 mph 78% 0.00 in 0 W/m2
06:35 62.2 °F 55.3 °F 29.69 in North 2 mph 2 mph 78% 0.00 in 0 W/m2
06:40 62.2 °F 55.3 °F 29.69 in SSE 2 mph 3 mph 78% 0.00 in 0 W/m2
06:45 62.2 °F 54.9 °F 29.69 in NE 2 mph 3 mph 77% 0.00 in 0 W/m2
06:50 62.2 °F 55.3 °F 29.69 in SW 2 mph 4 mph 78% 0.00 in 0 W/m2
06:55 62.2 °F 54.9 °F 29.70 in ENE 2 mph 4 mph 77% 0.00 in 0 W/m2
07:00 62.3 °F 55 °F 29.70 in NNE 3 mph 3 mph 77% 0.00 in 0 W/m2
07:05 62.2 °F 55.3 °F 29.70 in SSW 3 mph 4 mph 78% 0.00 in 0 W/m2
07:10 62.2 °F 55.3 °F 29.70 in East 3 mph 3 mph 78% 0.00 in 0 W/m2
07:15 62.3 °F 55.4 °F 29.70 in SW 3 mph 3 mph 78% 0.00 in 0 W/m2
07:20 62.2 °F 54.9 °F 29.70 in SSW 3 mph 4 mph 77% 0.00 in 0 W/m2
07:25 62.2 °F 55.3 °F 29.70 in WSW 3 mph 4 mph 78% 0.00 in 0 W/m2
07:30 62.2 °F 54.9 °F 29.70 in SSW 3 mph 4 mph 77% 0.00 in 5 W/m2
07:35 62.1 °F 54.8 °F 29.70 in SSW 4 mph 4 mph 77% 0.00 in 5 W/m2
07:40 62.1 °F 55.2 °F 29.70 in SW 3 mph 3 mph 78% 0.00 in 7 W/m2
07:45 62.1 °F 55.2 °F 29.70 in ESE 2 mph 3 mph 78% 0.00 in 11 W/m2
07:50 62 °F 55.1 °F 29.71 in South 2 mph 3 mph 78% 0.00 in 12 W/m2
07:55 62 °F 55.1 °F 29.71 in ESE 2 mph 3 mph 78% 0.00 in 19 W/m2
08:00 61.9 °F 55 °F 29.71 in SSW 2 mph 2 mph 78% 0.00 in 26 W/m2
08:05 61.9 °F 55.3 °F 29.71 in SE 2 mph 3 mph 79% 0.00 in 47 W/m2
08:10 61.9 °F 55.3 °F 29.71 in SSW 2 mph 3 mph 79% 0.00 in 63 W/m2
08:15 61.9 °F 55.3 °F 29.71 in ENE 2 mph 3 mph 79% 0.00 in 62 W/m2
08:20 61.8 °F 55.2 °F 29.71 in NW 1 mph 1 mph 79% 0.00 in 67 W/m2
08:25 61.8 °F 55.2 °F 29.71 in SSE 1 mph 1 mph 79% 0.00 in 56 W/m2
08:30 61.7 °F 55.1 °F 29.71 in NNE 2 mph 2 mph 79% 0.00 in 51 W/m2
08:35 61.7 °F 55.5 °F 29.71 in NE 1 mph 2 mph 80% 0.00 in 60 W/m2
08:40 61.6 °F 55.4 °F 29.71 in NNE 1 mph 1 mph 80% 0.00 in 77 W/m2
08:45 61.6 °F 55.4 °F 29.71 in SSW 2 mph 2 mph 80% 0.00 in 67 W/m2
08:50 61.6 °F 55.4 °F 29.71 in WSW 2 mph 2 mph 80% 0.00 in 165 W/m2
08:55 61.7 °F 55.1 °F 29.71 in SE 2 mph 2 mph 79% 0.00 in 155 W/m2
09:00 61.9 °F 55.7 °F 29.71 in ENE 2 mph 2 mph 80% 0.00 in 172 W/m2
09:05 61.8 °F 55.6 °F 29.71 in SW 2 mph 2 mph 80% 0.00 in 139 W/m2
09:10 61.8 °F 55.6 °F 29.72 in NE 2 mph 2 mph 80% 0.00 in 113 W/m2
09:15 61.9 °F 55.7 °F 29.72 in ENE 2 mph 2 mph 80% 0.00 in 95 W/m2
09:20 61.9 °F 55.3 °F 29.72 in SSE 2 mph 2 mph 79% 0.00 in 91 W/m2
09:25 61.9 °F 55.3 °F 29.72 in North 2 mph 2 mph 79% 0.00 in 77 W/m2
09:30 62 °F 55.4 °F 29.72 in SSW 2 mph 3 mph 79% 0.00 in 91 W/m2
09:35 62 °F 55.4 °F 29.72 in SW 2 mph 3 mph 79% 0.00 in 109 W/m2
09:40 62.1 °F 55.5 °F 29.72 in South 3 mph 3 mph 79% 0.00 in 116 W/m2
09:45 62.1 °F 55.5 °F 29.72 in South 3 mph 3 mph 79% 0.00 in 179 W/m2
09:50 62.2 °F 56 °F 29.72 in SW 3 mph 3 mph 80% 0.00 in 116 W/m2
09:55 62.2 °F 56 °F 29.72 in SSE 2 mph 3 mph 80% 0.00 in 134 W/m2
10:00 62.2 °F 56 °F 29.72 in SSW 2 mph 2 mph 80% 0.00 in 123 W/m2
10:05 62.3 °F 56 °F 29.72 in SW 2 mph 2 mph 80% 0.00 in 97 W/m2
10:10 62.4 °F 56.1 °F 29.72 in SSW 2 mph 2 mph 80% 0.00 in 107 W/m2
10:15 62.6 °F 56.3 °F 29.72 in West 2 mph 2 mph 80% 0.00 in 114 W/m2
10:20 62.8 °F 56.5 °F 29.72 in WSW 2 mph 4 mph 80% 0.00 in 134 W/m2
10:25 63 °F 56.7 °F 29.72 in SSW 2 mph 4 mph 80% 0.00 in 155 W/m2
10:30 63.1 °F 56.8 °F 29.72 in SSE 3 mph 3 mph 80% 0.00 in 230 W/m2
10:35 63.2 °F 56.9 °F 29.72 in SW 3 mph 6 mph 80% 0.00 in 345 W/m2
10:40 63.3 °F 57 °F 29.72 in SW 3 mph 3 mph 80% 0.00 in 202 W/m2
10:45 63.2 °F 56.9 °F 29.72 in South 2 mph 3 mph 80% 0.00 in 295 W/m2
10:50 63.2 °F 57.3 °F 29.72 in South 2 mph 2 mph 81% 0.00 in 392 W/m2
10:55 63.2 °F 57.3 °F 29.72 in SSW 2 mph 2 mph 81% 0.00 in 360 W/m2
11:00 63.2 °F 57.3 °F 29.72 in SW 2 mph 3 mph 81% 0.00 in 297 W/m2
11:05 63.2 °F 57.6 °F 29.72 in SW 2 mph 3 mph 82% 0.00 in 320 W/m2
11:10 63.3 °F 57.7 °F 29.71 in South 2 mph 3 mph 82% 0.00 in 359 W/m2
11:15 63.4 °F 57.8 °F 29.71 in SSW 2 mph 3 mph 82% 0.00 in 366 W/m2
11:20 63.4 °F 57.8 °F 29.71 in WSW 2 mph 2 mph 82% 0.00 in 360 W/m2
11:25 63.5 °F 57.9 °F 29.71 in SSW 2 mph 4 mph 82% 0.00 in 497 W/m2
11:30 63.7 °F 58.4 °F 29.71 in SW 2 mph 3 mph 83% 0.00 in 515 W/m2
11:35 64 °F 58.4 °F 29.71 in SSW 2 mph 3 mph 82% 0.00 in 531 W/m2
11:40 64.2 °F 58.6 °F 29.71 in SW 2 mph 3 mph 82% 0.00 in 552 W/m2
11:45 64.3 °F 58.3 °F 29.72 in SE 2 mph 3 mph 81% 0.00 in 504 W/m2
11:50 64.4 °F 58.8 °F 29.72 in SSE 2 mph 2 mph 82% 0.00 in 487 W/m2
11:55 64.6 °F 58.6 °F 29.72 in SSW 2 mph 5 mph 81% 0.00 in 299 W/m2
12:00 64.7 °F 58.7 °F 29.72 in SSW 2 mph 2 mph 81% 0.00 in 527 W/m2
12:05 64.8 °F 58.8 °F 29.72 in SSW 2 mph 2 mph 81% 0.00 in 575 W/m2
12:10 64.9 °F 58.9 °F 29.72 in SSW 2 mph 4 mph 81% 0.00 in 540 W/m2
12:15 65 °F 58.7 °F 29.72 in SSW 2 mph 4 mph 80% 0.00 in 577 W/m2
12:20 65.1 °F 58.4 °F 29.72 in WSW 3 mph 3 mph 79% 0.00 in 462 W/m2
12:25 65.2 °F 58.5 °F 29.72 in South 3 mph 3 mph 79% 0.00 in 415 W/m2
12:30 65.1 °F 58.4 °F 29.72 in SSW 2 mph 2 mph 79% 0.00 in 617 W/m2
12:35 65.2 °F 58.9 °F 29.73 in SSW 2 mph 4 mph 80% 0.00 in 512 W/m2
12:40 65.3 °F 59 °F 29.73 in SE 3 mph 3 mph 80% 0.00 in 452 W/m2
12:45 65.3 °F 59 °F 29.73 in West 2 mph 3 mph 80% 0.00 in 580 W/m2
12:50 65 °F 59 °F 29.73 in North 2 mph 2 mph 81% 0.00 in 605 W/m2
12:55 64.7 °F 59.1 °F 29.73 in NE 1 mph 2 mph 82% 0.00 in 487 W/m2
13:00 66.1 °F 58.7 °F 29.73 in SE 1 mph 1 mph 77% 0.00 in 306 W/m2
13:05 66.9 °F 59.5 °F 29.73 in NNW 2 mph 5 mph 77% 0.00 in 606 W/m2
13:10 68 °F 59.4 °F 29.73 in SE 2 mph 2 mph 74% 0.00 in 645 W/m2
13:15 68.5 °F 59.1 °F 29.74 in NNE 2 mph 2 mph 72% 0.00 in 608 W/m2
13:20 68.1 °F 58.7 °F 29.73 in North 2 mph 4 mph 72% 0.00 in 587 W/m2
13:25 67.9 °F 58.9 °F 29.74 in NE 3 mph 4 mph 73% 0.00 in 561 W/m2
13:30 68.2 °F 58.8 °F 29.74 in ENE 2 mph 2 mph 72% 0.00 in 513 W/m2
13:35 68 °F 58.6 °F 29.74 in NNE 2 mph 2 mph 72% 0.00 in 599 W/m2
13:40 67.7 °F 58.7 °F 29.74 in NNW 2 mph 4 mph 73% 0.00 in 636 W/m2
13:45 67.5 °F 58.5 °F 29.74 in NNW 3 mph 4 mph 73% 0.00 in 236 W/m2
13:50 67.6 °F 59 °F 29.74 in ESE 3 mph 3 mph 74% 0.00 in 636 W/m2
13:55 67.9 °F 59.3 °F 29.74 in NW 2 mph 3 mph 74% 0.00 in 663 W/m2
14:00 68 °F 59 °F 29.74 in NNW 2 mph 3 mph 73% 0.00 in 596 W/m2
14:05 68.1 °F 59.5 °F 29.74 in NE 2 mph 5 mph 74% 0.00 in 591 W/m2
14:10 67.7 °F 59.5 °F 29.74 in NE 2 mph 2 mph 75% 0.00 in 434 W/m2
14:15 67.8 °F 59.6 °F 29.74 in NE 2 mph 2 mph 75% 0.00 in 459 W/m2
14:20 67.8 °F 60 °F 29.74 in ENE 2 mph 3 mph 76% 0.00 in 496 W/m2
14:25 67.7 °F 60.2 °F 29.74 in East 2 mph 3 mph 77% 0.00 in 519 W/m2
14:30 67.6 °F 60.1 °F 29.75 in East 2 mph 2 mph 77% 0.00 in 577 W/m2
14:35 67.5 °F 60.4 °F 29.75 in East 3 mph 3 mph 78% 0.00 in 587 W/m2
14:40 67.4 °F 60.3 °F 29.75 in NNE 3 mph 3 mph 78% 0.00 in 533 W/m2
14:45 67 °F 60.3 °F 29.75 in ESE 2 mph 3 mph 79% 0.00 in 622 W/m2
14:50 66.9 °F 60.2 °F 29.75 in ESE 3 mph 3 mph 79% 0.00 in 629 W/m2
14:55 66.7 °F 60.3 °F 29.75 in East 2 mph 6 mph 80% 0.00 in 464 W/m2
15:00 66.5 °F 60.1 °F 29.75 in NE 2 mph 2 mph 80% 0.00 in 431 W/m2
15:05 66.2 °F 60.2 °F 29.75 in ENE 3 mph 5 mph 81% 0.00 in 434 W/m2
15:10 66 °F 60 °F 29.75 in NE 3 mph 3 mph 81% 0.00 in 417 W/m2
15:15 65.9 °F 59.9 °F 29.75 in ESE 2 mph 3 mph 81% 0.00 in 452 W/m2
15:20 65.9 °F 59.9 °F 29.76 in NE 3 mph 3 mph 81% 0.00 in 515 W/m2
15:25 65.8 °F 60.2 °F 29.75 in NE 3 mph 3 mph 82% 0.00 in 313 W/m2
15:30 65.8 °F 60.2 °F 29.75 in NNW 3 mph 3 mph 82% 0.00 in 295 W/m2
15:35 65.8 °F 60.2 °F 29.75 in NE 2 mph 8 mph 82% 0.00 in 552 W/m2
15:40 65.6 °F 60 °F 29.75 in ENE 3 mph 3 mph 82% 0.00 in 529 W/m2
15:45 65.6 °F 60 °F 29.75 in NW 3 mph 3 mph 82% 0.00 in 434 W/m2
15:50 65.6 °F 60 °F 29.75 in East 3 mph 3 mph 82% 0.00 in 494 W/m2
15:55 65.5 °F 59.9 °F 29.75 in ESE 3 mph 3 mph 82% 0.00 in 466 W/m2
16:00 65.4 °F 59.8 °F 29.75 in WSW 3 mph 3 mph 82% 0.00 in 445 W/m2
16:05 65.4 °F 59.8 °F 29.75 in ENE 3 mph 6 mph 82% 0.00 in 420 W/m2
16:10 65.4 °F 59.8 °F 29.75 in East 3 mph 3 mph 82% 0.00 in 410 W/m2
16:15 65.4 °F 59.8 °F 29.75 in NNE 3 mph 3 mph 82% 0.00 in 404 W/m2
16:20 65.2 °F 59.6 °F 29.75 in North 3 mph 3 mph 82% 0.00 in 345 W/m2
16:25 65.1 °F 59.5 °F 29.75 in NNE 4 mph 4 mph 82% 0.00 in 288 W/m2
16:30 65 °F 59.4 °F 29.75 in NNW 4 mph 4 mph 82% 0.00 in 408 W/m2
16:35 64.9 °F 59.3 °F 29.75 in East 3 mph 4 mph 82% 0.00 in 376 W/m2
16:40 64.8 °F 59.2 °F 29.76 in NE 3 mph 3 mph 82% 0.00 in 214 W/m2
16:45 64.9 °F 59.3 °F 29.76 in North 3 mph 3 mph 82% 0.00 in 207 W/m2
16:50 64.8 °F 59.2 °F 29.76 in NNE 2 mph 2 mph 82% 0.00 in 200 W/m2
16:55 64.8 °F 59.2 °F 29.76 in North 2 mph 2 mph 82% 0.00 in 236 W/m2
17:00 64.8 °F 59.5 °F 29.76 in ENE 2 mph 4 mph 83% 0.00 in 185 W/m2
17:05 64.7 °F 59.4 °F 29.76 in ENE 3 mph 4 mph 83% 0.00 in 183 W/m2
17:10 64.7 °F 59.1 °F 29.76 in ENE 3 mph 3 mph 82% 0.00 in 225 W/m2
17:15 64.6 °F 59 °F 29.76 in NNE 3 mph 3 mph 82% 0.00 in 183 W/m2
17:20 64.5 °F 58.9 °F 29.76 in NE 3 mph 4 mph 82% 0.00 in 232 W/m2
17:25 64.3 °F 58.7 °F 29.76 in ENE 3 mph 7 mph 82% 0.00 in 199 W/m2
17:30 64.3 °F 58.7 °F 29.77 in ENE 3 mph 3 mph 82% 0.00 in 130 W/m2
17:35 64.3 °F 58.7 °F 29.77 in NE 3 mph 3 mph 82% 0.00 in 123 W/m2
17:40 64.1 °F 58.8 °F 29.77 in NE 2 mph 2 mph 83% 0.00 in 100 W/m2
17:45 64.1 °F 58.8 °F 29.77 in ENE 2 mph 9 mph 83% 0.00 in 121 W/m2
17:50 64 °F 58.4 °F 29.77 in NNW 2 mph 3 mph 82% 0.00 in 100 W/m2
17:55 63.8 °F 58.5 °F 29.77 in ESE 3 mph 3 mph 83% 0.00 in 83 W/m2
18:00 63.7 °F 58.4 °F 29.77 in East 3 mph 3 mph 83% 0.00 in 84 W/m2
18:05 63.6 °F 58.3 °F 29.77 in East 2 mph 3 mph 83% 0.00 in 91 W/m2
18:10 63.5 °F 58.2 °F 29.77 in NNE 3 mph 3 mph 83% 0.00 in 104 W/m2
18:15 63.5 °F 58.6 °F 29.78 in North 3 mph 4 mph 84% 0.00 in 91 W/m2
18:20 63.5 °F 58.6 °F 29.78 in NE 2 mph 2 mph 84% 0.00 in 65 W/m2
18:25 63.4 °F 58.5 °F 29.78 in NW 2 mph 3 mph 84% 0.00 in 65 W/m2
18:30 63.3 °F 58.4 °F 29.78 in NNW 3 mph 3 mph 84% 0.00 in 54 W/m2
18:35 63.2 °F 58.3 °F 29.78 in NE 2 mph 3 mph 84% 0.00 in 44 W/m2
18:40 63.1 °F 58.2 °F 29.78 in ESE 2 mph 3 mph 84% 0.00 in 46 W/m2
18:45 63 °F 58.1 °F 29.78 in NE 2 mph 5 mph 84% 0.00 in 37 W/m2
18:50 62.8 °F 58.2 °F 29.78 in NNE 3 mph 3 mph 85% 0.00 in 33 W/m2
18:55 62.8 °F 58.2 °F 29.78 in NE 3 mph 3 mph 85% 0.00 in 26 W/m2
19:00 62.7 °F 58.1 °F 29.78 in NNE 3 mph 6 mph 85% 0.00 in 21 W/m2
19:05 62.6 °F 58 °F 29.78 in ESE 2 mph 6 mph 85% 0.00 in 18 W/m2
19:10 62.5 °F 57.9 °F 29.79 in ENE 2 mph 3 mph 85% 0.00 in 11 W/m2
19:15 62.4 °F 57.8 °F 29.79 in East 2 mph 3 mph 85% 0.00 in 7 W/m2
19:20 62.3 °F 58.1 °F 29.79 in SE 2 mph 2 mph 86% 0.00 in 0 W/m2
19:25 62.2 °F 57.6 °F 29.79 in North 2 mph 3 mph 85% 0.00 in 0 W/m2
19:30 62.1 °F 57.5 °F 29.79 in North 2 mph 2 mph 85% 0.00 in 0 W/m2
19:35 62 °F 57.4 °F 29.79 in East 2 mph 2 mph 85% 0.00 in 0 W/m2
19:40 62 °F 57.4 °F 29.80 in NE 2 mph 2 mph 85% 0.00 in 0 W/m2
19:45 62 °F 57.4 °F 29.80 in West 2 mph 2 mph 85% 0.00 in 0 W/m2
19:50 62 °F 57.4 °F 29.80 in ENE 2 mph 2 mph 85% 0.00 in 0 W/m2
Sand Point, Michigan, USA
Compliments of Weather Underground - 2 mb